Location: Peebles
(55.6412°N, 3.1714°W)
Time: 20:16:49
(UTC+00:00)

ISS - Visible Passes

Search period start: 30 October 2020 00:00
Search period end: 09 November 2020 00:00
Orbit: 417 x 420 km, 51.6° (Epoch: 30 October)

Date Brightness Start Highest point End Pass type
(mag) Time Alt. Az. Time Alt. Az. Time Alt. Az.
30 Oct -1.2 04:10:41 18° ESE 04:10:41 18° ESE 04:12:06 10° ESE visible
30 Oct -2.8 05:43:38 18° SW 05:45:45 40° S 05:48:56 10° ESE visible
31 Oct -2.8 04:57:52 36° S 04:58:04 36° SSE 05:01:12 10° E visible
31 Oct -2.7 06:31:20 10° WSW 06:34:30 39° S 06:37:40 10° ESE visible
01 Nov -1.3 04:12:04 20° ESE 04:12:04 20° ESE 04:13:26 10° E visible
01 Nov -2.9 05:45:01 21° WSW 05:46:49 41° S 05:50:00 10° ESE visible
02 Nov -3.0 04:59:11 42° S 04:59:11 42° S 05:02:19 10° ESE visible
02 Nov -2.4 06:32:31 10° W 06:35:30 30° SSW 06:38:29 10° SE visible
03 Nov -1.2 04:13:22 19° ESE 04:13:22 19° ESE 04:14:35 10° ESE visible
03 Nov -2.7 05:46:19 22° WSW 05:47:50 35° SSW 05:50:56 10° SE visible
04 Nov -2.8 05:00:30 37° S 05:00:30 37° S 05:03:18 10° ESE visible
04 Nov -1.8 06:33:53 10° WSW 06:36:24 19° SSW 06:38:53 10° SSE visible
05 Nov -1.0 04:14:42 17° ESE 04:14:42 17° ESE 04:15:38 10° ESE visible
05 Nov -2.2 05:47:38 20° SW 05:48:45 24° SSW 05:51:34 10° SSE visible
06 Nov -2.2 05:01:52 27° S 05:01:52 27° S 05:04:06 10° SE visible
06 Nov -1.3 06:36:05 10° SW 06:37:08 11° SW 06:38:11 10° SSW visible
07 Nov -0.7 04:16:09 12° SE 04:16:09 12° SE 04:16:31 10° SE visible
07 Nov -1.7 05:49:06 15° SW 05:49:34 15° SSW 05:51:36 10° S visible
08 Nov -1.4 05:03:26 15° S 05:03:26 15° S 05:04:29 10° SSE visible
